Theta_e
342 340 339 339 339 339 339 341 343 344 345 345 345 344 345 344 344 344 345 346 346 345 343 343 342 342 342 342 343 342 343 342 342 343 337 331 330 330 332 332 333 335 335 340 344 344 344 343 344 344 344 345 343 342 343 344 344 343 342 340 338 337 338 339 340 341 342 344 344 345 347 348 348 349 350 350 350 350 350 349 349 348 349 348 347
340 340 339 339 340 342 343 345 346 346 347 348 347 347 347 346 347 348 348 348 346 345 343 341 341 341 341 341 341 341 342 342 342 343 340 334 332 332 331 332 333 334 334 337 340 342 344 345 345 345 344 343 343 343 344 343 342 340 338 337 337 339 341 342 343 344 345 345 345 346 346 347 348 348 348 349 349 350 350 350 350 349 349 348 347
340 339 340 341 343 346 347 348 348 348 349 349 348 348 347 348 349 350 348 348 346 346 345 343 342 341 340 341 341 341 341 342 342 343 342 338 337 337 333 333 333 333 332 334 336 338 340 342 344 344 342 341 341 341 341 339 338 337 337 339 341 342 344 345 345 345 346 346 346 346 346 346 346 346 346 347 347 348 349 350 350 350 350 349 349
340 341 343 345 347 347 348 348 349 349 349 349 349 348 348 349 350 349 348 347 346 346 346 346 345 343 341 341 340 341 341 341 342 343 344 342 341 342 340 337 335 334 332 331 333 333 333 334 336 337 337 338 337 337 336 336 337 338 340 342 343 344 345 345 346 346 346 346 346 345 345 345 345 345 346 345 346 347 349 350 350 351 351 351 351
343 344 346 347 348 348 348 348 349 349 350 350 350 348 348 350 349 348 347 347 347 346 346 347 346 344 341 341 340 340 341 342 342 342 344 344 343 344 345 344 342 338 334 332 331 330 330 330 331 332 333 334 334 335 336 337 339 340 342 343 344 345 345 345 345 345 345 346 345 346 346 346 345 345 344 344 344 346 348 349 350 351 351 351 351
345 346 346 347 347 348 348 349 349 349 350 350 349 349 348 348 348 348 349 348 348 347 347 347 346 344 342 340 340 340 340 341 342 342 343 344 345 345 345 346 346 344 340 335 333 332 331 331 331 332 333 334 335 337 338 339 340 342 343 344 345 345 345 345 345 345 345 345 345 346 347 347 347 346 345 345 346 348 349 349 350 351 351 351 351
345 346 346 347 347 348 349 350 350 350 351 350 348 349 349 350 350 350 350 350 349 348 347 347 346 345 344 342 341 340 341 341 341 342 343 344 345 345 345 346 347 347 346 342 339 338 338 338 337 336 336 336 336 337 338 339 340 342 343 344 344 344 344 344 344 345 344 345 345 345 347 348 349 349 348 349 349 349 350 350 351 351 351 351 350
347 347 347 347 347 348 350 350 350 351 352 350 349 350 351 351 351 351 351 351 350 349 348 347 346 345 344 343 342 341 341 341 342 342 342 343 345 344 345 346 346 347 348 347 345 343 343 344 344 343 342 339 338 338 337 338 339 341 343 343 343 344 344 344 344 345 345 345 345 345 346 347 347 348 349 350 350 350 350 350 350 350 350 350 349
347 348 348 348 348 349 350 349 350 351 351 350 350 350 351 351 351 352 352 352 351 348 347 346 345 345 343 342 342 342 342 341 341 342 342 343 344 344 344 344 345 346 347 347 347 347 346 346 347 346 346 346 344 343 341 340 340 342 343 344 344 344 344 345 345 346 346 346 346 346 346 346 346 347 347 348 349 349 349 349 349 349 349 348 348
348 349 349 348 347 349 350 350 350 351 351 351 350 350 349 350 352 353 353 352 350 348 347 346 345 344 343 342 342 342 342 342 341 341 342 343 343 344 343 343 344 345 346 346 347 347 346 346 347 347 347 348 348 348 347 346 346 346 346 347 347 347 347 347 348 348 349 349 348 348 347 347 347 346 345 345 346 346 347 348 348 348 348 348 349
350 349 349 348 348 350 351 350 350 352 353 352 351 351 350 351 354 354 353 351 349 349 347 345 345 344 342 342 342 342 341 341 342 342 341 342 343 342 343 343 343 343 344 344 345 345 345 345 345 346 346 346 347 348 348 348 348 348 348 348 348 349 349 349 350 351 351 350 349 349 349 349 349 347 343 340 340 342 343 345 346 347 348 348 349
351 350 348 348 349 350 351 351 351 352 354 353 352 351 352 354 355 354 352 350 350 350 348 346 345 343 342 341 341 341 341 340 340 341 342 341 342 342 342 342 342 343 343 343 343 343 343 343 343 343 343 343 345 346 347 348 348 348 348 348 349 349 349 350 351 352 352 351 349 349 349 350 350 349 346 338 335 336 337 339 342 344 346 347 347
352 351 349 349 350 350 351 352 352 353 354 352 351 352 353 355 356 355 352 350 350 350 349 346 344 343 342 340 340 340 340 341 340 341 341 341 340 341 341 341 341 341 342 342 342 342 342 343 343 343 343 343 344 345 347 347 347 348 348 348 348 349 349 350 350 351 351 350 350 349 349 349 350 351 350 343 335 333 334 335 336 338 341 343 345
352 352 350 349 349 350 351 352 353 354 354 352 353 353 354 356 356 355 352 349 351 351 349 345 342 342 340 340 342 342 339 339 340 341 341 340 340 340 340 340 340 340 341 341 341 341 341 341 342 343 343 343 344 345 346 346 347 347 347 347 347 347 348 347 348 348 349 349 349 349 349 350 350 350 350 346 339 335 335 335 335 336 337 338 339
352 353 351 349 349 350 351 353 353 354 355 353 354 355 355 355 355 355 352 351 351 350 348 345 343 341 341 346 347 348 348 343 341 341 341 342 341 341 341 340 340 340 340 340 340 341 340 340 341 342 342 342 343 344 345 345 346 346 346 346 346 346 347 347 347 347 348 348 349 349 349 349 349 349 349 348 344 341 339 339 338 337 337 337 337
351 353 352 350 350 350 351 353 353 354 354 353 354 355 354 354 355 354 352 352 352 350 347 345 343 341 345 351 346 350 358 350 344 344 341 342 343 342 342 341 341 340 340 340 340 340 340 340 340 340 341 341 341 342 343 344 344 345 345 345 346 346 346 346 346 346 347 348 349 349 349 349 348 348 348 348 347 346 345 344 343 341 340 339 338
351 353 352 351 351 351 351 353 353 353 353 353 354 355 354 354 355 355 353 352 352 350 348 346 344 342 344 348 345 351 358 348 346 348 341 342 343 342 342 341 341 341 340 340 340 340 340 340 340 340 341 340 341 341 341 341 342 343 344 344 345 345 345 346 346 346 347 348 349 349 348 348 347 347 347 347 347 347 348 348 347 347 346 344 342
351 352 352 353 353 353 353 353 353 353 353 353 354 354 353 353 354 355 353 352 352 350 350 348 348 347 345 347 345 348 352 347 350 353 345 342 343 342 342 340 340 340 340 340 340 340 339 340 340 340 341 341 341 341 341 341 341 342 343 343 344 344 345 346 346 347 347 348 349 348 347 347 347 347 347 346 346 346 346 347 347 346 347 346 345
352 352 352 353 354 354 354 354 353 353 353 353 354 354 352 352 354 355 353 353 352 351 350 349 350 350 350 349 346 347 347 348 352 353 352 352 345 341 342 341 341 340 340 340 339 340 339 340 341 341 342 342 342 342 342 342 342 342 343 344 344 345 345 346 346 347 347 349 348 348 348 347 347 347 346 345 345 345 345 343 343 343 343 343 345
351 351 351 353 354 354 354 354 354 354 353 353 354 354 352 352 354 355 354 353 353 352 352 350 350 350 351 350 348 348 346 346 349 347 354 363 356 347 345 342 342 341 341 342 340 340 341 341 342 343 343 344 344 343 343 343 343 343 344 344 345 346 347 347 347 346 346 347 347 347 347 346 347 346 346 346 345 346 344 341 339 339 340 342 343
351 351 351 353 355 355 354 355 355 354 353 353 354 354 353 352 354 354 353 353 354 354 353 352 351 350 351 351 350 349 348 347 348 345 350 360 360 354 348 344 343 342 344 346 345 343 344 343 344 344 345 345 344 343 343 343 344 345 345 346 347 348 348 347 346 346 346 345 346 346 346 346 346 346 346 346 346 347 345 342 341 341 341 341 342
353 352 352 354 355 356 355 355 355 354 354 354 354 355 354 353 354 354 353 354 354 354 353 353 353 351 350 351 350 349 348 347 347 347 347 349 353 352 347 345 348 346 346 348 347 347 347 346 346 346 346 345 344 343 344 345 345 346 347 348 347 348 347 347 346 346 345 345 345 345 346 347 347 347 347 347 347 347 346 345 345 346 346 345 344
354 353 353 355 356 356 356 356 355 354 354 355 354 354 354 353 353 353 354 355 354 354 353 353 353 353 352 351 351 347 346 346 346 348 347 345 351 351 346 346 348 348 349 349 347 348 350 349 347 346 346 346 345 345 346 347 347 347 347 347 347 347 346 346 346 346 345 345 346 346 348 349 349 348 349 349 348 348 348 348 348 350 350 350 349
355 354 354 355 356 355 356 356 355 354 354 354 355 355 354 353 353 353 355 355 354 353 353 353 353 353 353 352 351 348 347 347 346 347 347 345 348 348 345 350 352 350 350 350 348 347 349 350 348 347 349 348 348 348 348 348 348 347 347 347 347 347 346 347 346 345 346 346 347 348 349 349 349 349 349 349 349 349 349 350 350 351 352 352 351
354 353 354 356 355 355 356 356 354 353 353 354 355 355 354 354 353 354 354 355 355 353 352 353 352 352 354 353 351 350 350 349 347 347 346 346 345 345 347 352 354 353 352 351 349 347 348 350 350 349 349 349 349 350 349 349 348 347 347 347 346 346 347 347 346 346 347 348 348 348 348 348 349 349 348 348 348 349 350 351 352 353 353 353 353
353 352 353 355 355 356 356 356 355 353 353 354 355 355 355 355 354 354 354 354 355 354 354 354 353 353 354 353 351 351 352 351 348 347 347 347 346 347 350 353 353 352 352 352 350 349 349 350 351 350 348 346 347 348 349 348 348 347 346 346 346 346 347 347 347 348 348 348 347 346 346 347 347 348 349 350 350 350 352 353 353 353 353 353 353
353 352 353 355 355 355 356 356 355 354 354 355 355 356 356 355 354 354 355 354 354 355 355 355 355 355 355 354 353 352 353 353 351 350 349 349 348 348 351 356 358 354 351 351 351 351 350 350 351 351 347 346 346 346 348 348 348 348 347 346 346 347 347 347 347 348 348 347 346 346 347 347 348 350 351 351 351 351 352 353 353 354 354 354 354
353 352 352 354 355 355 355 355 355 354 354 355 356 356 355 354 354 354 355 355 355 355 355 355 356 356 356 355 354 353 353 353 353 353 352 351 350 350 350 354 360 360 358 358 355 351 351 351 351 350 348 347 347 346 346 346 346 347 347 346 347 347 347 347 348 349 348 347 346 347 348 348 349 351 352 352 351 352 352 352 353 353 353 353 353
353 351 351 353 354 354 355 354 355 355 354 355 356 356 355 355 355 355 355 355 355 356 355 355 355 355 355 355 355 355 354 353 352 352 352 352 351 351 351 351 355 360 363 365 360 353 350 352 351 350 349 347 347 344 343 343 344 345 347 347 348 347 347 348 349 349 348 347 347 348 349 351 352 352 352 353 353 353 353 354 354 354 355 355 354
351 351 351 352 353 353 354 354 355 355 355 355 356 356 355 355 356 356 355 355 355 355 355 354 354 354 355 355 355 356 355 353 352 352 353 353 352 352 352 352 353 356 358 360 360 354 350 351 350 349 349 348 347 345 342 342 342 343 346 348 348 348 348 348 349 349 348 348 348 349 351 353 354 353 353 354 355 355 355 356 356 357 356 356 356
351 352 352 352 353 353 354 354 354 354 354 354 355 355 355 355 356 356 356 355 355 355 354 354 353 354 355 355 356 355 355 354 352 352 353 353 353 353 353 353 353 354 353 354 358 355 350 350 349 348 349 349 348 346 343 342 341 343 347 348 348 348 347 347 349 350 349 348 348 351 353 354 354 354 355 355 355 356 356 356 356 356 356 356 356
351 352 353 352 353 354 354 354 354 354 355 354 355 355 355 355 356 357 356 356 356 355 355 354 354 354 355 355 355 354 355 355 353 353 354 354 355 354 355 355 354 354 353 352 354 354 350 349 348 347 349 349 348 346 344 342 342 344 347 348 348 347 347 347 349 350 350 348 350 353 354 354 354 355 355 355 354 354 354 355 355 356 356 356 355
350 351 352 352 353 355 355 355 354 354 354 355 355 354 354 355 356 357 356 356 355 355 355 354 353 354 355 355 354 352 354 356 355 354 354 355 356 356 356 357 355 355 354 352 353 353 351 349 348 348 348 348 347 345 344 343 342 343 346 347 346 346 346 348 350 351 349 349 351 354 355 354 354 355 355 355 353 352 352 353 353 354 355 355 355
350 350 351 352 353 354 355 356 356 355 355 355 355 354 354 354 356 357 357 356 355 355 354 353 351 353 355 355 353 352 354 356 356 355 355 356 357 357 357 356 356 355 354 353 352 352 351 349 348 348 347 347 346 346 346 344 343 343 344 345 344 345 347 350 352 351 349 349 351 354 355 354 354 354 353 352 351 351 351 351 353 354 354 355 354
351 351 352 354 354 354 354 355 355 355 355 355 355 354 353 354 355 356 357 357 357 356 356 354 353 353 354 354 354 354 355 356 356 356 356 357 357 357 356 356 356 355 354 353 352 351 351 349 348 348 347 347 347 347 347 345 345 345 344 343 343 345 349 352 352 350 348 349 351 354 355 354 353 352 349 348 349 350 351 353 354 355 354 355 355
353 352 354 355 355 355 354 355 355 354 354 354 354 354 354 354 355 356 357 357 357 358 357 357 357 356 355 355 354 354 354 355 356 356 355 355 355 355 355 355 355 354 354 353 352 351 350 349 348 347 347 347 347 348 347 345 344 344 344 344 344 347 351 352 352 349 348 349 351 353 354 352 353 351 346 347 350 351 353 354 354 354 354 354 354
353 353 355 356 356 355 355 355 355 355 354 354 354 355 355 355 355 356 356 356 357 357 357 357 357 357 357 356 356 355 355 355 355 355 354 354 354 355 355 355 355 354 352 352 351 350 349 349 348 347 347 348 347 348 346 345 345 345 346 346 347 350 351 351 351 348 347 350 351 352 352 351 353 349 344 348 352 352 353 354 353 354 354 354 353
354 354 354 355 355 355 355 355 355 355 355 354 354 355 355 355 355 355 356 356 356 357 356 356 356 356 357 357 357 357 357 355 355 355 355 355 356 355 355 355 354 353 352 351 350 349 348 348 347 347 348 348 348 347 345 346 348 349 350 350 349 351 352 352 351 347 348 351 351 351 351 351 351 344 341 348 353 353 353 353 353 354 354 353 352
354 354 354 355 355 355 355 355 355 355 355 355 354 355 355 355 355 355 356 355 356 356 356 355 356 356 357 357 357 358 357 357 356 356 356 356 355 355 355 355 354 354 353 351 349 348 348 348 347 348 349 348 347 347 346 349 351 352 353 354 353 353 353 354 350 346 349 351 350 350 350 351 348 337 337 348 353 352 353 353 353 354 352 348 346
355 355 355 355 356 355 355 355 355 355 355 355 355 354 354 354 354 354 354 355 355 355 354 354 354 355 356 356 357 357 357 357 356 356 356 356 356 356 354 354 353 353 353 352 349 348 348 349 348 348 349 348 347 347 349 352 353 354 355 356 356 355 354 353 349 346 349 352 350 347 349 351 343 331 334 348 353 351 351 352 351 346 340 333 332
355 355 355 355 355 354 354 354 354 354 354 354 354 354 354 354 353 353 353 354 354 353 352 351 352 354 356 356 357 357 356 356 356 356 355 355 356 355 353 352 351 351 351 352 350 347 348 349 349 348 349 348 347 349 353 355 355 356 356 356 357 356 353 351 347 345 350 352 348 346 348 348 337 326 332 346 352 351 348 350 350 339 327 321 320
355 355 355 355 354 353 353 353 353 353 353 353 354 354 354 353 352 353 353 353 353 352 351 350 350 352 354 355 357 356 356 356 356 355 355 355 355 352 351 352 351 350 351 351 349 348 348 349 348 348 349 348 349 353 355 356 356 357 357 356 355 354 350 348 346 346 350 350 347 346 347 343 333 325 329 341 351 350 344 347 348 337 325 321 321
355 355 355 355 354 353 353 353 353 353 353 353 354 353 352 351 351 352 352 353 353 352 351 349 349 350 351 354 355 355 356 357 356 355 355 354 353 352 352 352 351 352 352 350 349 347 347 348 348 349 348 348 352 355 356 356 357 357 356 354 353 351 348 347 347 348 349 347 347 348 346 338 331 327 326 336 349 349 340 339 339 330 323 324 328
354 354 354 354 354 354 353 353 352 352 352 353 353 352 351 351 352 351 351 352 353 352 352 350 350 350 350 352 354 355 356 356 355 354 354 354 354 352 352 351 350 351 351 350 350 349 350 350 349 349 349 351 355 356 356 357 356 355 354 353 352 348 345 346 347 348 348 347 347 348 344 335 332 330 326 334 347 346 336 331 330 325 325 329 334
351 352 352 353 353 353 353 352 352 352 352 352 352 352 351 351 352 352 352 352 352 352 352 351 351 351 351 351 353 354 354 355 355 354 353 353 352 351 350 350 349 349 349 350 351 351 351 351 351 351 354 356 357 357 357 357 355 353 353 353 350 347 345 346 346 347 348 347 346 345 340 333 332 331 327 335 347 344 331 326 327 326 329 333 338
351 351 352 351 350 351 351 351 351 351 351 352 352 352 351 351 351 352 352 352 352 352 352 351 351 351 351 353 353 353 353 354 353 353 353 352 351 350 349 349 350 349 349 350 350 351 351 352 354 356 357 357 357 357 357 355 353 352 351 350 348 347 346 346 346 347 348 346 343 341 336 332 332 330 327 337 346 340 327 325 327 328 332 334 334
353 353 351 349 347 348 349 350 350 350 351 351 351 351 350 350 351 352 352 351 352 352 351 351 351 350 351 351 352 352 353 353 353 352 352 352 352 352 351 351 350 350 350 350 351 353 354 356 357 357 357 356 356 355 354 353 351 350 349 348 347 345 344 344 343 345 348 346 340 335 333 332 331 329 327 338 346 340 327 325 327 329 333 332 327
353 353 353 351 350 351 350 349 348 348 349 349 349 349 349 349 350 351 350 349 350 351 350 350 350 349 349 348 349 350 350 351 351 351 350 351 352 354 353 352 351 351 352 352 353 354 356 356 357 356 355 354 352 351 351 349 348 347 346 346 344 340 340 340 339 342 345 343 335 331 332 333 330 327 326 335 346 342 328 323 327 331 334 330 322
353 353 353 353 353 352 350 348 348 347 347 348 347 346 346 347 348 348 348 348 348 349 349 349 349 349 348 348 347 348 348 349 350 349 350 350 352 354 355 353 353 353 353 353 353 355 355 355 354 353 352 350 349 349 348 345 343 343 343 342 339 335 336 338 338 340 341 338 332 330 334 332 328 326 325 330 342 342 329 323 327 331 333 330 322
348 348 349 350 351 350 348 348 348 348 347 347 345 344 344 345 345 346 347 347 348 348 348 348 348 348 347 347 347 347 348 348 348 349 350 349 350 352 352 351 351 353 353 353 354 354 353 352 351 350 348 348 347 345 343 340 339 339 337 337 335 332 333 334 334 335 337 335 331 331 333 331 326 325 325 325 335 338 329 325 327 327 328 327 322
345 345 347 347 348 348 348 348 347 346 345 344 344 343 344 344 345 346 346 348 348 348 348 348 349 348 347 346 346 346 347 347 346 348 349 349 349 349 348 347 349 351 352 353 353 353 351 349 347 346 346 345 342 339 337 335 334 333 332 331 331 329 330 330 329 332 335 333 329 329 332 329 324 324 325 324 331 333 326 325 328 326 322 322 321
Wind_Speed
9 9 9 9 9 9 9 7 6 6 5 5 3 2 1 2 3 3 4 5 6 6 7 8 9 10 10 11 11 10 9 7 5 5 5 4 3 3 3 3 3 3 3 2 2 3 2 2 3 3 3 4 4 4 3 3 4 4 4 4 4 4 4 4 4 5 5 6 7 8 8 7 8 8 8 9 9 9 9 9 9 10 10 10 11
9 10 10 10 9 8 7 6 5 5 4 3 2 2 3 3 4 5 6 7 6 6 6 6 8 9 10 11 10 9 8 6 5 5 5 4 3 3 3 3 3 3 3 2 2 3 3 3 4 4 4 4 4 4 4 4 4 4 4 3 3 4 4 5 6 6 7 8 9 10 10 10 10 10 10 10 10 10 10 10 10 10 10 10 10
10 10 9 8 7 6 5 5 5 4 4 3 3 3 4 5 6 7 8 8 7 6 7 7 8 8 9 10 10 8 7 5 4 4 5 4 4 3 3 3 3 3 3 3 3 3 2 3 4 4 4 3 3 3 3 3 3 3 3 4 4 5 6 7 8 8 9 10 11 11 12 12 12 12 12 12 12 13 12 12 12 12 12 12 12
10 9 8 7 6 5 4 4 4 4 4 5 4 5 5 6 7 7 8 8 7 7 8 9 9 8 8 9 9 7 6 5 5 4 4 4 4 4 4 3 3 3 3 3 3 3 2 2 2 2 2 2 2 2 2 2 2 3 4 4 5 6 7 8 9 10 11 11 12 12 12 12 12 13 13 13 13 13 13 13 13 13 13 14 14
8 7 6 6 5 4 3 3 4 4 4 5 5 5 5 6 7 8 8 8 8 8 8 10 10 8 7 8 8 7 5 5 5 5 4 4 4 4 5 4 4 4 3 3 2 2 2 2 2 2 2 2 2 2 2 3 3 4 4 5 6 6 7 8 9 10 11 12 12 12 12 12 12 12 13 13 13 13 12 12 12 13 13 14 14
6 5 5 4 3 2 2 3 3 3 3 5 5 5 5 6 7 8 8 8 9 8 8 9 9 8 8 8 8 8 7 6 5 5 5 5 5 5 5 5 5 5 5 4 4 3 3 3 3 3 3 3 3 3 3 4 5 5 5 6 7 7 8 9 10 10 11 12 12 12 12 12 12 12 12 12 12 11 11 11 12 12 13 13 14
4 4 3 2 1 1 1 2 2 2 3 4 4 4 5 6 8 8 8 8 8 8 8 8 7 7 9 9 9 9 8 7 6 5 5 5 5 5 5 5 5 5 5 5 4 4 5 5 5 5 4 4 4 4 5 5 5 6 6 7 7 8 9 10 10 11 11 12 12 12 13 13 12 12 12 11 11 11 12 12 12 13 14 14 15
3 2 1 1 1 1 0 1 2 3 4 4 4 4 6 7 7 8 8 8 8 7 7 7 5 6 9 10 9 8 8 7 6 5 5 6 5 5 5 5 5 5 5 4 4 4 5 5 5 5 5 5 6 6 6 6 6 6 6 7 7 8 9 10 10 11 12 12 13 13 13 14 14 14 13 13 13 13 14 14 15 15 16 16 16
2 1 2 2 2 2 1 2 2 3 3 3 4 5 6 7 6 7 8 9 8 7 7 6 5 6 9 9 8 7 6 6 6 6 6 6 5 5 5 5 5 6 5 5 5 5 5 5 5 5 5 6 6 6 6 6 6 6 6 7 7 8 8 9 10 11 12 13 14 14 15 15 16 16 16 16 16 16 16 17 17 17 17 17 17
2 2 3 3 3 3 2 2 2 2 3 4 4 5 6 7 6 6 7 8 7 7 7 6 5 7 9 8 6 6 6 6 7 7 7 6 6 6 5 5 6 6 6 6 6 5 5 5 5 6 6 6 6 6 6 5 5 6 6 6 7 8 8 9 10 12 13 14 15 15 16 16 17 17 17 17 17 17 17 17 17 17 16 16 16
2 2 2 3 3 3 2 1 2 2 3 4 4 5 5 5 6 5 6 6 5 6 7 7 6 7 8 8 6 6 7 6 7 7 7 7 7 7 7 7 6 6 6 7 7 7 6 6 6 6 6 7 7 6 6 5 5 5 5 6 7 8 9 10 11 12 13 15 15 16 16 17 18 18 18 17 16 15 15 14 15 14 14 14 14
2 2 2 3 3 3 2 2 2 3 4 4 4 4 4 4 6 6 5 3 3 5 6 6 6 5 6 7 6 6 7 7 7 7 7 7 7 8 8 8 8 7 7 7 7 7 7 7 7 7 7 7 7 7 7 6 6 6 6 7 7 8 9 11 12 13 14 15 16 16 17 18 19 19 19 18 16 15 14 13 13 13 13 13 13
3 3 3 3 3 3 3 3 3 4 3 3 3 3 4 5 6 6 4 2 2 5 6 4 4 3 4 5 6 7 6 6 7 7 8 8 8 9 9 9 9 8 8 8 8 8 7 7 7 7 7 7 7 7 7 7 7 7 7 8 9 10 11 12 13 14 14 15 16 16 17 18 19 20 20 19 18 16 15 15 14 13 13 13 13
5 5 5 5 4 5 4 4 4 4 2 2 2 3 4 5 5 5 3 2 3 6 5 3 2 1 1 4 6 7 6 5 6 7 8 9 9 10 11 11 11 9 9 10 9 8 8 8 8 7 7 7 7 7 7 8 8 8 9 9 10 11 12 13 14 15 15 16 16 17 18 18 19 20 20 19 19 18 17 17 16 15 14 14 14
7 6 6 6 6 6 5 4 4 4 3 2 3 3 3 4 5 5 3 2 3 6 5 2 0 1 2 2 3 4 4 4 6 8 8 9 10 11 12 13 12 11 11 10 9 9 9 9 9 8 8 8 8 8 9 9 9 10 10 11 11 12 13 14 15 16 16 16 16 17 17 18 18 19 19 18 18 18 18 18 18 17 16 15 15
9 8 7 7 7 6 6 5 5 5 4 4 4 3 4 5 4 4 3 3 3 5 5 2 1 1 2 1 1 1 2 3 7 8 7 8 9 10 12 14 13 12 11 11 10 10 9 10 10 11 11 10 10 10 11 12 12 12 12 13 13 13 14 15 15 15 15 16 16 17 17 17 17 17 18 18 18 18 19 19 19 20 19 18 16
11 9 8 7 7 7 7 6 6 6 5 5 4 4 5 4 3 3 4 3 2 4 4 4 2 1 1 1 1 1 1 2 5 6 6 5 6 8 10 11 11 11 11 11 11 11 11 11 13 14 14 13 12 12 12 13 13 14 14 14 14 15 15 14 14 15 15 15 15 16 16 16 17 18 18 19 19 20 20 20 21 21 21 20 19
12 10 9 8 7 7 7 7 7 6 6 5 4 5 5 4 2 2 3 3 2 2 3 4 4 2 1 1 1 1 1 1 1 2 5 4 4 7 9 10 8 7 10 11 12 12 13 14 14 14 12 12 11 11 11 12 12 13 14 14 15 15 15 14 14 15 16 15 15 16 16 17 18 19 20 20 20 21 21 21 20 20 20 19 19
13 13 11 9 8 7 7 7 7 6 6 5 5 5 5 4 3 2 3 3 2 1 1 2 3 3 3 3 2 2 2 1 1 1 3 2 4 6 7 10 8 6 6 8 11 12 12 13 12 10 9 9 9 9 10 10 10 11 12 13 14 14 14 14 15 16 16 15 16 17 17 19 20 20 20 20 20 21 21 20 19 18 17 17 17
14 14 13 11 9 8 7 7 7 7 6 6 5 5 4 4 3 2 3 3 2 2 1 1 1 2 3 3 3 2 2 2 0 0 1 1 4 4 6 8 8 6 5 4 6 9 9 9 9 8 8 8 8 8 9 8 8 9 10 11 12 13 13 14 15 15 15 15 16 17 18 18 19 19 20 20 21 21 21 20 18 17 16 16 16
13 13 13 12 9 8 8 7 7 7 6 6 5 5 5 5 3 3 4 3 2 2 2 2 2 2 2 2 2 1 1 1 0 0 1 0 1 2 5 7 6 5 5 5 5 5 7 7 7 6 7 8 8 8 7 6 6 7 8 9 10 12 13 13 13 13 13 14 15 15 16 16 17 18 20 20 20 20 20 19 17 16 16 16 16
12 12 13 12 9 8 8 8 8 7 7 6 6 5 5 5 4 4 4 3 3 2 2 2 2 2 2 2 1 1 1 2 2 1 1 1 1 2 4 4 4 5 5 6 5 3 4 4 4 5 6 7 6 5 4 4 5 6 7 9 10 11 12 12 12 12 12 13 14 15 16 16 18 19 20 20 19 19 19 18 16 16 17 16 16
12 13 13 12 10 9 9 8 8 8 8 7 7 6 6 6 6 5 4 4 4 4 2 2 2 2 2 2 2 1 1 2 2 2 1 1 0 2 3 4 4 5 6 7 5 3 4 5 4 5 6 7 5 4 4 5 5 6 8 10 10 9 10 10 11 12 13 14 15 16 17 18 18 18 19 19 19 19 18 17 16 17 17 17 17
13 15 15 13 11 10 9 8 8 9 8 8 7 6 7 7 6 6 6 5 5 5 4 3 3 2 2 3 2 2 2 2 2 1 2 2 1 2 3 3 3 5 7 8 5 3 3 4 4 4 6 6 6 6 6 6 6 7 8 8 7 8 9 10 12 13 15 15 16 17 18 18 18 19 20 20 20 20 19 18 17 18 17 16 17
15 16 16 14 12 11 10 9 8 8 9 8 8 7 7 7 6 7 7 6 6 6 6 5 5 4 3 3 2 2 3 3 2 2 2 2 2 2 3 3 3 5 7 7 7 5 2 4 6 7 7 6 6 7 7 7 7 7 7 7 8 8 10 11 13 15 16 16 18 18 19 19 20 20 21 21 21 20 19 18 17 17 17 16 16
15 16 16 14 12 11 11 10 9 9 9 9 8 7 7 7 6 7 7 8 7 7 7 6 6 5 5 4 4 4 4 3 3 2 2 2 2 2 2 3 3 4 5 6 8 5 2 3 5 7 10 8 8 8 7 8 8 8 8 8 8 9 10 12 14 15 16 18 20 21 21 21 20 20 20 20 19 19 18 17 17 17 17 17 16
15 15 15 14 13 12 11 11 10 9 10 10 8 7 7 7 7 7 8 9 8 8 7 7 7 7 6 6 6 5 5 5 4 3 3 3 3 2 2 1 1 3 4 5 7 6 4 4 4 7 11 10 9 9 9 9 8 8 8 8 9 10 11 13 14 15 18 20 22 22 22 21 20 19 19 19 19 19 19 18 18 18 18 18 17
15 14 15 15 14 13 12 12 11 10 11 11 9 8 8 8 8 8 8 9 9 8 8 8 8 7 7 7 7 7 6 6 7 6 5 5 4 4 3 2 0 1 2 3 4 4 5 6 5 7 10 10 10 10 9 10 10 9 9 9 9 10 12 14 15 17 20 21 23 23 22 20 19 19 18 19 19 19 19 20 19 19 19 19 19
16 15 15 15 15 14 13 12 12 11 11 12 11 9 9 9 9 9 9 9 9 9 9 8 8 8 8 8 8 8 8 8 8 7 7 6 7 7 6 4 2 1 1 1 2 3 3 6 6 6 9 10 9 9 10 11 11 10 10 9 10 11 14 16 17 19 21 22 23 22 20 18 18 17 17 18 18 18 18 18 18 18 17 18 18
15 15 15 15 14 14 14 13 13 12 12 12 12 11 11 11 11 11 10 10 10 10 10 10 10 9 9 9 8 9 8 8 7 7 7 7 7 8 8 7 6 4 3 1 2 4 4 6 7 7 9 9 9 9 11 12 12 11 10 9 11 13 16 18 19 20 21 22 22 19 17 16 16 16 16 16 15 15 16 15 15 15 15 16 16
15 15 15 15 15 15 15 15 14 13 13 13 13 13 13 12 12 12 12 12 12 11 11 11 10 10 10 10 10 9 8 8 7 7 7 7 7 8 8 9 9 8 7 4 1 4 7 9 10 11 10 10 9 9 11 13 12 10 9 9 11 14 17 19 19 20 21 21 19 17 15 15 14 14 14 14 14 14 15 15 14 15 15 16 16
16 15 15 15 16 15 15 15 15 15 14 14 14 14 14 14 13 13 12 12 12 12 11 10 11 11 12 11 11 10 9 8 7 7 7 7 8 8 8 10 10 9 9 7 5 8 13 13 13 12 10 10 9 10 12 14 12 10 10 10 13 16 18 19 19 20 21 20 17 15 14 14 13 13 12 13 14 15 15 15 15 15 16 16 16
17 17 16 16 16 16 16 16 16 16 16 15 15 15 15 15 14 13 12 12 13 13 11 11 11 12 12 13 12 12 10 8 8 8 8 8 8 8 9 11 11 10 10 9 9 12 16 15 13 12 10 9 9 10 12 14 14 13 12 13 15 17 19 19 19 20 20 18 15 15 14 13 13 13 12 13 15 15 15 16 15 16 16 16 17
17 17 17 16 16 16 17 17 17 17 17 16 15 15 15 15 15 14 13 13 13 13 12 12 12 12 12 13 13 12 11 10 8 8 9 9 9 10 11 12 13 12 10 11 11 12 15 16 15 12 9 9 10 10 11 13 14 14 14 15 17 18 18 18 19 20 19 16 15 15 13 13 13 13 14 15 15 16 16 15 15 14 15 15 15
16 17 16 16 15 16 16 17 17 17 17 17 16 16 16 15 15 15 14 14 14 13 13 13 12 12 12 13 13 12 12 12 10 9 10 10 10 12 12 13 14 13 12 12 12 13 15 16 15 13 11 11 11 11 12 13 13 14 15 17 17 17 16 17 19 20 17 15 15 15 13 13 13 14 15 15 15 15 15 14 14 14 14 14 14
16 16 17 16 16 16 17 18 18 18 17 17 17 17 16 16 16 16 16 16 16 15 15 14 14 14 13 14 13 12 12 14 13 12 12 12 12 13 13 14 14 15 14 13 13 14 15 15 15 14 13 12 12 13 14 14 14 14 16 16 16 16 16 17 19 19 16 14 15 15 13 13 13 14 16 16 15 14 14 15 15 15 15 14 14
18 18 18 18 17 18 18 18 18 19 18 18 19 18 18 18 18 17 17 17 17 16 16 16 15 15 15 15 14 12 12 14 15 15 14 14 13 13 13 14 14 14 14 14 14 14 15 16 17 16 14 13 13 14 14 15 15 16 16 15 14 15 16 17 19 18 14 13 15 15 15 13 13 15 16 15 15 14 15 17 17 16 15 15 15
19 20 20 20 20 20 20 20 20 20 19 20 20 20 20 20 19 19 18 18 18 17 17 17 16 15 16 16 15 14 13 14 16 16 15 14 14 14 14 14 14 15 15 15 14 14 15 17 18 17 15 13 13 14 14 14 15 15 15 15 15 15 17 19 20 17 13 13 15 16 15 13 14 16 16 15 14 15 17 19 18 17 16 16 16
21 22 21 21 21 22 21 21 21 21 21 21 21 21 21 21 20 20 19 19 19 19 19 19 18 17 16 16 16 16 15 15 16 16 16 16 16 16 16 16 17 17 16 16 15 15 15 15 16 17 15 13 13 14 13 13 13 12 13 15 17 17 18 20 21 17 13 13 15 15 14 13 15 17 16 14 14 16 18 20 19 18 17 17 17
22 23 23 22 22 22 23 23 23 23 23 23 23 22 21 21 21 21 21 21 21 21 21 21 20 20 18 18 17 17 16 16 16 17 17 17 18 18 18 18 19 19 18 18 17 15 14 14 15 15 14 14 14 13 12 12 12 11 11 13 16 17 19 20 20 16 14 14 15 15 14 15 17 18 16 14 15 17 19 19 19 19 19 19 17
22 23 23 23 23 23 24 24 24 24 24 24 24 24 24 23 22 22 22 22 21 21 20 20 20 21 20 20 19 18 17 17 17 18 18 18 19 19 18 18 19 19 19 18 17 16 14 13 14 15 15 15 14 12 11 10 10 10 11 12 13 16 18 20 18 14 12 13 15 15 15 17 19 20 17 16 16 17 20 20 18 20 21 21 18
23 23 23 23 23 23 24 24 24 25 26 26 25 25 24 25 24 23 23 22 22 21 20 20 20 21 21 21 20 19 18 18 18 18 18 17 18 18 18 18 18 19 18 17 16 15 14 13 15 15 15 15 13 11 10 10 9 9 10 11 12 15 18 19 17 13 11 13 15 14 14 16 20 20 18 17 16 17 21 20 18 20 22 21 19
23 24 24 24 24 24 23 23 24 25 26 26 25 23 23 24 25 26 25 23 22 21 21 21 21 21 21 22 21 20 19 18 19 20 20 19 18 19 20 19 19 18 18 18 17 16 14 14 15 14 14 14 13 11 10 9 8 8 10 11 13 15 16 14 12 10 11 13 14 13 13 16 20 20 19 17 15 17 20 19 18 20 22 20 19
22 23 24 25 26 25 24 24 25 26 27 28 27 25 25 24 24 26 27 24 23 22 23 23 22 22 22 22 21 21 21 20 19 19 20 20 20 21 21 20 20 19 17 17 17 16 15 14 14 13 13 13 12 9 8 9 9 10 11 12 14 14 13 11 10 10 11 12 12 12 13 16 19 19 19 16 13 15 18 18 18 21 21 19 18
20 21 22 24 25 25 26 26 26 26 27 28 28 27 27 25 23 25 27 25 23 23 23 24 24 22 22 21 21 21 21 21 20 18 18 19 19 19 19 18 17 16 15 13 13 13 13 12 12 12 11 11 11 9 9 9 10 11 12 14 15 13 11 10 9 8 8 10 12 12 12 15 18 18 19 15 12 14 18 18 19 20 20 18 17
15 15 16 16 16 18 21 22 23 24 25 26 26 26 25 25 24 25 25 23 23 24 24 24 24 24 23 22 22 21 21 20 19 18 17 18 19 18 17 16 15 14 12 11 11 11 11 11 12 11 11 11 11 10 10 10 10 12 13 13 13 10 8 6 4 4 4 7 11 11 11 14 17 17 17 13 11 14 18 18 18 19 17 16 16
10 9 8 8 8 10 13 17 19 20 21 22 22 23 24 24 24 24 22 21 23 26 25 25 25 24 24 23 22 22 21 20 20 19 18 19 19 19 17 16 14 13 12 12 12 12 11 11 11 11 11 10 10 10 10 10 11 11 10 9 6 4 4 3 3 3 2 5 10 11 9 12 15 17 16 11 8 12 17 18 17 16 14 15 16
10 9 8 8 9 11 14 16 17 16 17 19 19 20 21 22 23 23 21 20 22 24 26 26 25 25 24 23 22 21 20 20 20 21 20 19 18 18 17 16 15 13 13 12 12 12 11 11 10 10 9 9 9 10 9 9 8 6 5 3 1 2 3 4 4 4 3 5 10 12 8 9 14 16 15 9 5 9 16 17 15 13 12 13 16
9 9 9 11 13 13 13 13 13 13 15 18 17 16 17 17 18 19 19 19 20 21 23 24 23 23 24 24 23 23 23 22 22 23 21 19 18 17 14 13 13 12 12 12 12 11 11 10 9 8 8 8 9 9 8 6 4 2 2 1 1 3 4 4 4 4 3 5 11 12 7 7 13 15 14 9 3 5 14 16 13 12 11 11 15
13 13 13 12 13 13 11 11 11 11 13 14 14 14 14 14 14 15 15 16 17 19 21 22 22 22 22 22 23 25 26 26 26 25 23 20 20 19 15 12 13 13 14 14 13 12 11 10 9 8 7 7 7 7 5 3 2 1 1 0 2 4 3 3 3 2 1 5 11 10 6 6 12 14 14 10 3 3 11 13 12 13 12 11 14
11 12 11 10 10 11 10 10 10 8 9 10 11 12 12 12 12 12 13 14 15 17 19 20 21 22 22 22 24 26 28 28 27 27 26 24 24 24 20 16 15 17 17 16 14 13 11 9 8 7 7 6 6 5 5 4 3 2 2 3 4 4 4 4 3 2 1 4 10 9 4 6 11 13 12 10 2 2 10 11 10 13 14 12 13
Wind_Direction
134 129 128 127 122 118 112 105 95 83 75 68 64 60 24 340 330 325 326 324 321 314 305 300 297 293 292 294 296 302 300 290 301 323 327 321 305 297 290 288 289 292 290 257 250 278 296 302 304 305 299 290 285 286 294 304 312 319 326 334 340 349 352 351 351 349 347 346 345 342 333 327 330 329 325 321 320 321 320 318 317 314 311 308 307
133 130 128 124 119 113 104 93 79 66 59 48 26 4 347 346 349 350 349 346 345 343 333 313 297 289 291 296 299 304 303 292 298 318 331 341 344 327 301 295 298 300 300 288 264 261 267 280 287 291 290 288 289 294 297 302 312 326 341 351 357 0 358 356 353 349 348 348 347 348 345 343 343 341 338 335 336 338 336 334 332 330 328 326 324
133 128 125 119 111 99 88 80 66 51 35 16 355 350 352 356 356 353 350 348 348 344 339 323 304 295 294 298 301 305 305 296 294 306 325 348 9 10 342 315 306 301 305 303 294 285 271 268 270 274 283 290 296 299 297 307 327 340 352 358 1 1 359 356 353 351 350 349 349 349 347 345 343 343 343 342 343 344 343 342 341 340 339 338 336
132 128 123 115 105 95 85 75 55 34 18 7 354 349 354 356 351 347 344 343 339 331 328 323 317 315 305 297 297 302 302 292 290 296 310 335 4 17 10 355 338 319 317 313 305 306 304 296 285 280 286 292 301 315 321 341 357 3 5 3 2 359 357 355 353 352 351 350 349 347 344 341 337 336 335 336 337 339 338 338 337 338 338 338 337
134 129 124 115 107 98 82 61 36 19 10 3 352 343 346 346 340 340 338 335 332 328 326 326 324 324 316 298 291 294 296 286 287 293 301 317 340 0 3 1 358 353 348 347 345 346 348 348 340 333 333 333 346 0 5 16 18 16 14 9 5 0 357 355 353 353 352 351 348 345 342 338 334 331 329 329 330 332 332 332 332 332 333 333 334
135 128 122 115 111 101 77 46 22 6 358 352 347 337 338 339 334 332 330 328 328 328 330 332 331 329 324 306 292 290 290 286 284 291 300 307 318 336 348 354 359 4 6 10 15 19 19 13 10 8 6 4 5 12 17 21 21 19 15 8 3 358 355 354 353 352 352 351 348 344 341 338 336 334 332 331 330 330 329 329 329 328 328 328 329
131 128 126 124 127 110 67 29 6 350 341 341 342 336 336 336 330 327 326 326 326 326 329 333 334 333 329 317 306 294 287 286 284 289 299 303 308 317 329 341 350 0 5 12 19 23 24 21 20 17 13 11 7 7 11 14 15 13 9 4 359 355 353 351 349 348 347 346 344 340 338 336 334 333 333 331 329 327 325 325 325 324 323 323 324
138 148 176 216 246 250 1 348 337 336 334 340 346 339 335 331 329 328 327 326 325 323 326 330 327 326 327 320 312 301 286 282 283 293 301 302 306 312 322 331 335 342 349 359 9 14 17 16 14 14 11 9 6 4 3 3 3 1 360 357 354 352 349 347 346 344 342 340 339 338 335 332 330 328 326 323 321 320 320 320 320 320 320 320 320
182 224 249 251 258 259 269 294 311 332 340 344 338 330 327 325 327 329 327 328 329 324 323 326 323 320 323 319 310 297 281 277 277 285 294 299 307 314 324 330 329 331 333 340 350 358 3 2 359 1 1 2 3 1 358 357 354 351 351 349 347 346 344 344 343 341 339 338 337 336 335 334 331 327 323 319 316 315 314 315 315 316 316 316 316
218 254 268 262 255 248 252 278 299 327 341 340 329 320 320 321 327 329 325 328 333 329 324 325 326 321 320 319 308 288 277 275 274 276 282 294 305 310 318 323 327 332 332 334 337 342 349 352 350 350 348 346 346 348 348 348 346 343 341 339 340 340 340 341 340 340 339 338 338 338 339 339 337 335 332 326 321 317 315 315 315 315 315 315 315
220 267 277 257 244 238 246 280 297 316 332 338 330 320 316 318 324 325 321 324 335 335 327 325 328 324 321 322 310 289 280 277 275 276 280 290 299 305 312 315 320 327 332 335 334 336 341 343 342 342 342 336 332 333 331 330 329 330 331 331 332 334 337 338 338 339 338 339 340 341 342 343 343 344 343 339 334 330 326 323 321 319 318 317 317
236 279 268 242 241 248 261 283 293 311 324 329 324 314 313 319 323 325 325 325 338 337 328 323 324 321 325 331 325 308 292 281 278 278 283 291 298 303 309 313 315 321 327 329 328 330 332 334 335 335 337 335 330 325 322 320 318 320 323 324 327 329 332 334 335 337 337 339 341 342 343 345 346 348 348 348 346 344 342 338 334 329 325 322 321
264 279 269 253 256 262 273 283 287 305 319 323 314 300 304 316 324 331 338 342 342 341 335 321 314 310 311 328 337 329 310 291 286 285 291 297 300 303 308 311 314 320 323 320 320 323 325 329 330 331 333 333 330 325 319 317 316 318 320 321 324 327 331 333 334 336 337 338 339 341 342 344 347 348 349 350 350 349 348 346 343 339 335 330 326
266 274 272 265 266 266 273 281 279 291 301 302 297 289 302 317 331 342 350 351 355 357 348 321 319 342 331 339 345 339 327 311 304 302 303 304 303 306 311 312 314 319 318 315 317 321 322 324 328 331 331 328 326 323 318 317 318 319 319 321 325 327 330 331 333 335 336 337 337 338 340 342 345 346 347 348 347 347 346 345 344 342 340 336 332
258 263 267 266 269 267 267 272 270 273 281 285 279 282 310 328 339 351 358 353 7 8 354 331 18 88 73 17 349 342 340 336 332 323 314 311 309 309 310 310 311 313 311 312 317 319 321 323 324 326 326 323 321 319 319 319 320 320 320 322 324 326 328 329 330 332 334 335 336 336 338 339 342 344 344 343 342 341 340 340 340 339 339 339 338
247 252 262 264 266 266 263 267 268 266 276 288 282 289 319 331 336 353 2 353 11 20 12 23 126 149 84 57 289 0 0 338 339 336 330 323 317 314 311 307 304 303 301 305 310 311 313 318 321 322 319 316 314 313 316 319 321 322 323 326 328 330 331 330 330 333 335 336 336 336 337 338 341 342 341 339 337 336 335 335 335 335 335 335 338
239 243 254 258 261 264 261 265 270 267 274 285 287 297 313 324 340 4 11 4 12 33 39 54 105 160 133 167 282 357 263 307 337 343 348 346 333 334 334 323 308 296 292 293 299 302 306 313 318 318 316 315 312 308 309 312 317 320 321 326 331 334 334 333 334 337 338 336 334 335 337 339 342 342 341 339 336 334 333 332 331 331 330 330 330
232 237 247 252 256 261 261 265 268 266 272 276 283 297 301 305 320 357 10 9 2 34 66 72 88 103 99 149 39 46 208 310 342 335 340 343 342 349 359 358 337 301 288 288 291 295 299 309 315 316 318 320 317 310 309 310 313 315 317 322 329 333 334 333 335 338 339 335 330 332 336 339 342 342 341 338 337 336 335 333 330 328 326 324 323
229 234 243 246 249 254 257 260 259 259 265 266 276 294 295 289 287 326 0 9 7 20 81 76 80 82 70 73 81 89 70 29 179 295 336 329 338 347 359 5 0 336 304 289 289 292 298 308 313 315 321 326 323 317 317 317 313 312 317 325 330 332 331 331 333 336 337 334 330 332 335 338 340 340 340 339 340 341 341 339 337 333 329 324 320
229 233 238 239 241 244 247 251 251 254 259 261 274 293 292 278 270 304 336 345 0 17 46 53 78 81 64 64 80 91 60 28 267 219 120 292 334 345 351 357 6 10 4 335 306 299 303 306 304 307 313 317 314 311 315 319 319 319 325 331 332 331 331 333 336 338 337 336 336 337 338 339 340 341 343 344 345 347 345 343 341 337 334 329 323
230 232 232 232 234 238 244 250 252 255 257 260 270 287 288 273 270 307 320 318 323 348 18 39 65 76 47 44 73 91 20 19 9 111 128 147 312 317 335 346 356 5 9 358 330 311 307 301 298 307 309 304 299 301 313 326 331 330 331 334 333 333 337 341 343 343 343 342 342 343 343 344 344 344 345 345 345 346 345 344 345 343 342 339 334
229 228 225 225 231 239 246 252 256 258 257 260 268 281 287 273 274 303 312 305 302 318 350 23 35 40 32 24 38 314 274 255 238 224 168 136 185 264 305 329 328 332 350 348 338 342 336 320 316 329 330 322 315 315 331 339 334 332 331 334 333 335 342 346 346 347 346 344 343 344 346 346 345 344 343 343 342 342 343 345 348 348 347 345 340
230 226 221 223 232 239 246 255 259 259 257 260 266 278 287 278 274 288 295 285 286 295 305 338 356 7 12 357 342 331 300 275 255 250 260 234 204 277 292 305 295 304 341 350 344 5 10 358 352 357 2 5 7 3 355 347 339 335 333 333 332 336 345 348 348 348 346 343 343 344 347 347 346 343 340 339 339 340 342 342 341 341 342 342 338
229 225 222 225 233 238 246 256 260 256 253 256 262 273 285 282 277 282 283 277 281 283 276 289 306 313 334 334 327 326 325 322 299 289 315 310 298 291 305 326 302 303 338 350 345 354 24 28 33 36 31 27 23 19 14 10 1 349 342 340 339 342 347 348 348 348 346 345 346 346 347 346 342 339 336 335 335 336 338 337 334 335 336 338 337
227 224 222 225 232 240 247 255 261 255 247 249 256 267 279 281 280 279 277 279 287 283 273 282 290 285 295 306 299 298 309 320 313 303 319 325 328 308 306 321 300 309 338 347 344 348 47 68 66 55 43 34 25 25 26 20 9 357 350 346 343 343 345 348 349 348 347 346 345 344 342 339 334 331 330 330 330 332 333 332 331 330 330 332 336
228 225 224 226 234 243 248 253 259 252 240 238 246 258 271 277 277 276 278 282 287 287 282 286 288 286 292 293 283 281 291 305 308 305 309 316 327 306 305 316 295 307 332 340 344 350 15 59 68 48 36 35 30 26 23 12 1 353 348 342 343 346 348 349 348 347 347 346 344 341 337 332 328 325 325 327 329 330 330 328 326 324 323 325 329
234 234 231 230 235 243 248 252 256 250 237 232 238 251 263 270 271 271 278 283 284 286 287 287 289 293 298 299 294 290 295 305 305 307 305 307 313 292 292 322 304 317 331 337 347 349 344 2 46 39 30 35 35 32 27 16 7 357 351 349 353 355 354 352 350 348 348 346 343 339 335 332 328 325 326 329 330 329 328 326 323 321 319 319 321
243 243 238 235 238 243 248 252 255 251 241 235 239 249 256 261 264 267 274 278 278 279 282 283 283 289 296 300 302 300 301 305 304 306 302 298 302 293 283 279 240 333 329 329 344 345 346 357 14 23 23 26 29 31 28 19 16 11 5 5 5 3 0 356 353 351 349 345 342 339 338 336 333 332 332 332 331 330 328 326 324 322 320 318 317
250 249 245 241 242 245 250 254 255 253 245 239 243 250 256 258 260 265 271 271 270 271 274 277 277 281 287 291 297 300 300 299 298 303 303 297 295 293 291 289 266 255 309 329 314 295 328 349 352 2 11 14 15 18 16 9 6 8 9 9 7 3 359 356 354 353 349 345 343 342 342 342 342 342 342 340 339 336 334 333 331 329 327 324 321
254 254 250 246 247 250 251 254 257 255 248 243 245 251 256 259 262 268 272 267 265 266 269 272 273 273 277 280 284 288 293 293 289 292 297 294 293 294 296 299 289 268 257 279 300 281 303 333 335 338 349 357 2 2 360 356 352 355 359 359 359 355 352 353 354 353 349 345 345 346 347 349 350 351 353 353 354 353 352 351 348 346 345 342 338
257 257 254 251 253 255 254 256 259 259 253 249 251 255 257 259 264 269 272 267 264 267 270 272 272 270 272 273 274 278 285 285 276 278 286 286 288 294 298 301 298 282 266 261 281 292 301 314 320 326 334 341 347 350 351 350 345 344 349 348 347 346 345 348 352 353 350 348 349 351 352 354 357 360 4 8 10 10 9 7 3 1 359 357 355
260 260 259 259 258 259 260 260 261 262 259 256 258 260 260 261 265 270 272 268 264 266 271 275 275 274 273 272 272 273 278 279 271 265 271 275 279 287 296 298 295 283 268 252 243 278 296 305 311 320 329 332 335 343 348 349 344 341 344 344 342 342 343 346 351 353 351 351 354 356 357 0 5 9 13 15 14 12 10 8 6 4 3 2 1
261 261 263 265 264 264 265 265 264 263 262 263 264 264 262 261 265 269 271 267 263 265 271 276 276 274 274 275 273 271 272 276 271 259 259 266 272 279 288 292 290 281 267 254 250 274 295 306 310 315 323 326 329 338 344 344 342 337 336 339 341 342 344 346 350 353 353 354 359 0 1 7 12 13 13 10 7 6 5 4 4 3 2 1 1
263 263 267 270 269 267 266 267 266 263 263 265 266 265 262 262 264 268 270 268 266 266 268 272 274 274 275 276 273 270 268 270 267 257 256 262 268 277 283 287 288 284 272 264 258 262 281 298 307 310 315 319 320 330 338 337 335 332 329 333 337 340 344 348 352 354 354 356 1 2 3 8 14 14 9 4 2 2 3 4 6 4 1 0 0
265 265 268 272 269 266 264 265 266 266 265 265 266 265 263 262 264 267 270 270 269 270 270 272 275 277 277 277 276 274 268 265 264 258 257 262 269 276 282 285 288 288 282 272 262 256 266 286 301 305 308 312 315 324 329 327 327 327 327 330 333 338 346 351 355 356 355 357 2 4 2 4 9 12 8 5 5 5 6 10 12 9 6 4 2
263 266 268 270 268 265 263 265 267 267 266 265 265 265 262 260 261 263 267 269 269 269 271 274 278 280 280 278 278 278 272 266 263 262 262 267 271 277 285 289 291 292 289 279 269 263 264 274 288 297 303 308 315 322 323 323 325 325 327 329 331 339 347 353 357 358 357 357 2 5 3 1 5 9 9 9 11 14 18 20 16 12 11 9 6
262 266 266 267 268 266 264 265 266 266 266 265 265 265 262 260 259 261 265 268 270 270 269 271 274 278 282 281 279 279 275 268 265 266 267 268 272 277 283 287 290 292 289 284 278 273 267 269 279 290 299 304 313 319 321 324 327 327 329 329 332 341 346 350 358 1 358 357 2 4 2 2 5 7 10 14 19 26 28 24 18 16 16 13 9
259 263 264 265 267 267 267 267 267 267 266 264 264 266 265 263 262 263 266 268 270 272 272 271 270 272 277 278 278 278 276 272 269 269 271 271 274 279 281 283 288 289 286 283 279 277 273 273 276 283 292 301 310 316 321 326 328 329 331 330 334 345 348 349 357 3 1 0 3 5 4 5 7 8 12 18 28 33 30 24 21 21 20 17 13
255 257 260 263 266 267 267 267 267 268 268 266 265 265 264 263 263 264 266 267 269 272 273 272 270 270 272 274 276 276 276 274 272 271 274 276 278 282 284 285 285 283 280 278 275 274 275 276 276 279 287 297 305 311 319 327 329 331 334 332 335 344 348 349 354 0 1 1 5 8 7 5 7 10 14 23 33 35 29 25 26 26 23 19 16
254 257 259 262 266 268 268 268 269 269 268 267 265 264 263 262 262 264 265 267 270 272 273 272 269 267 269 270 271 272 272 272 272 273 275 277 280 283 285 286 285 282 278 275 272 271 273 275 276 280 285 289 296 305 314 325 330 331 335 332 332 338 343 346 352 358 358 357 2 7 6 3 7 12 16 27 38 35 28 27 29 27 22 17 15
250 255 260 265 269 269 267 268 270 269 268 268 267 266 264 262 262 264 265 266 269 271 272 270 267 263 265 268 269 270 270 271 273 275 275 275 277 281 282 284 286 286 283 278 272 268 269 271 273 275 277 280 288 298 309 321 326 325 329 329 327 333 338 341 350 0 1 354 355 3 7 6 8 12 17 29 39 35 28 27 27 22 17 14 12
246 250 255 262 267 268 268 270 270 269 269 268 267 267 267 267 266 264 264 266 267 268 270 270 267 261 260 265 270 272 273 274 274 275 275 273 273 276 280 283 284 285 284 280 273 269 267 267 267 268 269 273 283 295 304 315 320 318 324 327 325 330 335 339 347 0 6 354 350 1 12 10 8 11 17 28 39 36 29 26 22 15 13 12 12
246 248 252 256 261 265 267 268 269 269 267 264 264 268 271 273 272 267 265 267 267 266 268 270 270 264 259 261 267 271 273 274 275 274 271 271 272 275 278 279 278 279 280 277 275 271 267 266 265 264 262 269 282 296 303 310 317 315 318 323 323 327 333 335 338 351 2 356 349 359 13 11 8 11 16 24 39 41 31 25 19 14 13 14 14
250 251 253 254 256 260 263 264 266 265 263 263 265 268 267 267 269 267 265 266 265 264 266 269 270 267 262 261 263 267 270 274 277 275 269 267 270 273 274 273 272 271 272 272 271 269 267 265 266 266 266 273 284 294 299 304 310 309 312 320 321 322 326 325 324 340 356 357 352 356 8 9 8 13 17 24 42 46 33 24 19 16 16 15 17
254 255 257 256 257 258 259 261 262 261 260 262 264 264 262 262 265 263 261 262 263 263 265 268 269 267 264 262 263 265 268 272 277 277 273 272 273 272 270 268 265 263 263 263 261 260 261 260 263 266 269 274 280 286 294 299 303 307 311 316 317 316 317 320 329 348 357 359 359 357 2 8 10 15 20 27 49 49 34 25 20 17 18 19 21
257 260 262 262 262 262 262 260 258 257 258 260 262 261 260 262 263 260 256 258 262 264 265 267 267 265 262 261 263 265 267 270 273 273 276 280 277 270 263 258 254 251 252 256 256 255 254 252 255 262 267 272 279 285 291 294 298 306 309 310 312 314 316 320 349 16 358 356 2 359 360 7 10 15 21 33 59 50 33 26 22 20 22 25 28
260 266 267 262 262 272 276 270 263 259 257 257 257 258 258 260 262 259 255 254 256 261 264 265 265 265 264 263 264 267 269 270 270 268 274 280 273 262 253 245 241 244 247 252 255 253 251 251 254 262 268 273 279 283 289 294 298 304 308 309 312 323 331 336 14 36 0 347 0 3 4 7 8 13 20 36 67 48 30 24 22 23 29 32 34
257 257 254 254 257 260 262 263 263 262 261 259 257 258 260 261 261 260 259 256 254 256 260 262 263 266 268 267 266 269 271 271 268 266 270 274 264 253 248 241 237 241 245 248 250 250 251 254 256 263 269 271 277 283 289 295 298 301 304 303 332 359 357 352 359 19 19 350 358 7 10 7 8 12 18 32 74 44 24 22 24 28 34 36 36
260 257 254 257 261 257 250 253 258 258 259 260 259 261 263 264 264 263 263 262 260 258 259 261 264 268 270 268 265 265 266 266 264 263 265 263 252 245 247 246 242 242 241 242 247 248 250 254 257 263 268 271 277 282 283 282 277 276 265 215 30 7 14 9 350 3 29 0 359 8 16 12 9 10 13 23 71 44 21 23 30 33 35 37 37
267 269 268 266 264 262 255 256 258 255 255 259 263 268 272 273 274 272 269 267 265 262 260 260 262 265 268 269 265 263 263 262 259 257 256 252 244 241 243 249 252 250 243 238 238 240 243 250 255 260 263 265 266 261 251 239 213 207 284 32 34 21 37 38 351 327 8 10 5 9 21 21 11 9 12 18 50 43 20 24 33 32 32 34 31
273 270 268 260 253 253 251 253 256 256 257 262 268 276 280 282 283 281 278 275 268 263 264 265 266 265 264 264 263 262 262 259 254 251 249 246 242 239 239 241 246 249 246 240 234 232 236 242 244 245 236 222 216 201 181 163 140 103 57 56 47 32 40 43 17 342 307 5 10 11 22 29 19 16 17 19 24 345 7 23 36 30 30 34 28